Location: Newark
(50.2575°N, 28.6575°E)
Time: 08:53:17
(UTC+00:00)

ISS - Visible Passes

Search period start: 18 September 2020 00:00
Search period end: 28 September 2020 00:00
Orbit: 419 x 420 km, 51.6° (Epoch: 18 September)

Date Brightness Start Highest point End Pass type
(mag) Time Alt. Az. Time Alt. Az. Time Alt. Az.
18 Sep -2.7 18:06:00 10° SW 18:08:14 32° SSW 18:08:14 32° SSW visible
19 Sep -2.7 17:18:58 10° SSW 17:21:55 28° SSE 17:23:09 22° ESE visible
19 Sep -1.3 18:55:07 10° WSW 18:56:09 18° WSW 18:56:09 18° WSW visible
20 Sep -3.8 18:07:44 10° WSW 18:10:54 71° SSW 18:10:54 71° SSW visible
21 Sep -3.6 17:20:25 10° SW 17:23:43 56° SSE 17:25:30 24° E visible
21 Sep -1.3 18:57:11 10° W 18:58:28 21° W 18:58:28 21° W visible
22 Sep -3.1 16:33:11 10° SW 16:36:22 40° SSE 16:39:34 10° E visible
22 Sep -3.7 18:09:42 10° W 18:12:59 74° NNW 18:12:59 74° NNW visible
23 Sep -3.8 17:22:15 10° WSW 17:25:38 87° NNW 17:27:24 26° ENE visible
23 Sep -1.1 18:59:13 10° W 19:00:22 20° WNW 19:00:22 20° WNW visible
24 Sep -3.7 16:34:50 10° WSW 16:38:12 75° SSE 16:41:35 10° ENE visible
24 Sep -3.3 18:11:44 10° W 18:14:44 60° NW 18:14:44 60° NW visible
25 Sep -3.6 17:24:14 10° W 17:27:36 68° N 17:29:04 31° ENE visible
25 Sep -0.9 19:01:09 10° WNW 19:02:01 17° WNW 19:02:01 17° WNW visible
26 Sep -3.6 16:36:43 10° W 16:40:06 75° N 16:43:22 11° ENE visible
26 Sep -2.9 18:13:40 10° WNW 18:16:19 51° WNW 18:16:19 51° WNW visible
27 Sep -3.7 17:26:11 10° W 17:29:33 70° N 17:30:36 40° ENE visible
27 Sep -0.6 19:03:02 10° WNW 19:03:33 14° W 19:03:33 14° W visible
